This is the latest recevied weather packets stored in our database for station/object K4VEB. If no packets are shown the sender has not sent any weather packets the latest 10 day(s).
| Time | Temp. | Humidity | Pressure | Rain* | Wind** | Luminosity | Snow |
|---|---|---|---|---|---|---|---|
| 1777207380 | 22.78° C | 84% | 1011.9 hPa | 0 mm | - | 199 W/m² | - |
| 1777207079 | 22.78° C | 84% | 1012.1 hPa | 0 mm | - | 90 W/m² | - |
| 1777206776 | 22.78° C | 85% | 1011.9 hPa | 0 mm | - | 178 W/m² | - |
| 1777206476 | 22.78° C | 86% | 1012.1 hPa | 0 mm | - | 140 W/m² | - |
| 1777206171 | 22.22° C | 88% | 1011.9 hPa | 0 mm | - | 118 W/m² | - |
| 1777205867 | 22.22° C | 89% | 1011.8 hPa | 0 mm | - | 93 W/m² | - |
| 1777205564 | 21.67° C | 90% | 1011.7 hPa | 0 mm | - | 82 W/m² | - |
| 1777205261 | 21.67° C | 91% | 1011.7 hPa | 0 mm | - | 72 W/m² | - |
| 1777204957 | 21.11° C | 92% | 1011.6 hPa | 0 mm | - | 67 W/m² | - |
| 1777204652 | 20.56° C | 93% | 1011.8 hPa | 0 mm | - | 64 W/m² | - |
| 1777204347 | 20.56° C | 94% | 1011.9 hPa | 0 mm | - | 56 W/m² | - |
| 1777204045 | 20° C | 94% | 1011.7 hPa | 0 mm | - | 49 W/m² | - |
| 1777203745 | 20° C | 95% | 1011.6 hPa | 0 mm | - | 41 W/m² | - |
| 1777203440 | 19.44° C | 95% | 1011.5 hPa | 0 mm | - | 31 W/m² | - |
| 1777203135 | 19.44° C | 95% | 1011.2 hPa | 0 mm | - | 28 W/m² | - |
| 1777202833 | 19.44° C | 95% | 1011.3 hPa | 0 mm | - | 23 W/m² | - |
| 1777202531 | 19.44° C | 95% | 1011.3 hPa | 0 mm | - | 21 W/m² | - |
| 1777202226 | 18.89° C | 95% | 1011.2 hPa | 0 mm | - | 16 W/m² | - |
| 1777201923 | 18.89° C | 95% | 1011.2 hPa | 0 mm | - | 14 W/m² | - |
| 1777201619 | 18.89° C | 95% | 1011 hPa | 0 mm | - | 10 W/m² | - |
| 1777201315 | 18.89° C | 95% | 1010.9 hPa | 0 mm | - | 7 W/m² | - |
| 1777201010 | 18.89° C | 95% | 1011 hPa | 0 mm | - | 4 W/m² | - |
| 1777200707 | 18.89° C | 94% | 1010.9 hPa | 0 mm | - | 3 W/m² | - |
| 1777200406 | 18.89° C | 95% | 1010.9 hPa | 0 mm | - | 1 W/m² | - |
| 1777200103 | 18.89° C | 94% | 1010.8 hPa | 0 mm | - | 0 W/m² | - |
* Rain latest hour (hover to see other rain measurements)
** Current wind speed in m/s (hover to see current wind gust speed)